[[{"header":{"parameterUnit":"m.s-1","parameterCategory":1,"la1":30.2992,"la2":30.254,"lo1":-89.0895,"lo2":-89.0443,"dy":0.0025,"dx":0.0025,"nx":19,"ny":19,"refTime":"2026-05-20T09:00:00:Z","depth":0,"parameterNumber":2,"parameterNumberName":"U-component_of_WINDS"},"data":[0,0,0,-3.7857,-3.7858,-3.7936,-3.7937,-3.8046,-3.8047,0,0,0,0,0,0,0,0,0,0,0,-3.7839,-3.784,-3.7857,-3.7859,-3.7936,-3.7937,-3.8045,-3.8047,0,0,0,0,0,0,0,0,0,0,0,-3.7839,-3.784,-3.7841,-3.7859,-3.7936,-3.7937,-3.8045,-3.7983,0,0,0,0,0,0,0,0,0,0,-3.7906,-3.7895,-3.784,-3.7841,-3.7859,-3.7936,-3.7937,-3.798,-3.7987,-3.8015,0,-3.8041,0,-3.8045,-3.8054,-3.8055,0,0,0,-3.7854,-3.789,-3.7906,-3.7841,-3.786,-3.7936,-3.79,-3.7984,-3.7992,-3.8024,-3.8042,-3.8046,-3.8047,-3.8055,-3.8056,-3.823,-3.8231,0,0,-3.785,-3.7856,-3.79,-3.7911,-3.79,-3.7898,-3.7902,-3.7988,-3.8008,-3.8042,-3.8048,-3.8049,-3.8056,-3.8057,-3.8229,-3.8231,0,0,0,-3.7841,-3.7854,-3.7867,-3.7907,-3.792,-3.79,-3.7906,-3.8005,-3.8008,-3.8049,-3.805,-3.8057,-3.8058,-3.8228,-3.823,-3.8286,0,0,0,-3.7838,-3.7848,-3.7865,-3.787,-3.7919,-3.7963,-3.792,-3.8003,-3.8012,-3.805,-3.8057,-3.8059,-3.8227,-3.8229,-3.8282,-3.8311,0,0,0,-3.7832,-3.7847,-3.7861,-3.787,-3.7904,-3.7962,-3.797,-3.8004,-3.8013,-3.8055,-3.806,-3.8226,-3.8229,-3.8279,-3.8305,-3.8358,0,0,0,-3.7828,-3.7909,-3.7862,-3.7953,-3.7903,-3.7997,-3.797,-3.8039,-3.8082,-3.8057,-3.8227,-3.823,-3.8277,-3.8302,-3.8355,-3.8403,-3.8425,0,0,-3.7934,-3.7922,-3.7975,-3.7935,-3.8038,-3.7984,-3.8096,-3.8129,-3.8127,-3.8196,-3.82,-3.8283,-3.8305,-3.8358,-3.8544,-3.8561,0,0,0,-3.8011,-3.8049,-3.8075,-3.8116,-3.8144,-3.817,-3.8186,-3.8199,-3.8257,-3.8164,-3.8318,-3.833,-3.8361,-3.8384,-3.8398,-3.8424,-3.8241,-3.8241,-3.8241,-3.8168,-3.8162,-3.825,-3.8254,-3.8295,-3.8311,-3.8343,-3.8363,-3.8344,-3.8381,-3.8401,-3.8515,-3.8542,-3.8553,-3.858,-3.8427,-3.8428,-3.8428,-3.8428,-3.8321,-3.8374,-3.8349,-3.8425,-3.8419,-3.8483,-3.8502,-3.8488,-3.8546,-3.8499,-3.8526,-3.8474,-3.8572,-3.8595,-3.8432,-3.8432,-3.8431,-3.8431,-3.843,-3.8422,-3.8446,-3.8461,-3.8521,-3.8569,-3.857,-3.8628,-3.8621,-3.8614,-3.864,-3.866,-3.8659,-3.8657,-3.8651,-3.8651,-3.8652,-3.8652,-3.8652,-3.8653,-3.852,-3.8535,-3.8584,-3.8622,-3.8649,-3.8682,-3.8701,-3.8727,-3.8753,-3.8743,-3.8743,-3.8721,-3.8583,-3.8547,-3.8659,-3.8658,-3.8657,-3.8656,-3.8656,-3.8675,-3.8639,-3.8715,-3.8742,-3.8786,-3.8834,-3.8825,-3.8878,-3.8898,-3.8927,-3.8901,-3.88,-3.8787,-3.8775,-3.8746,-3.8902,-3.8902,-3.8902,-3.8902,-3.8759,-3.8753,-3.8829,-3.8872,-3.8914,-3.8913,-3.9001,-3.9017,-3.9028,-3.904,-3.9017,-3.8978,-3.8967,-3.896,-3.8945,-3.8917,-3.9113,-3.9113,-3.9114,-3.8854,-3.8851,-3.8926,-3.8937,-3.8972,-3.9002,-3.9083,-3.9134,-3.9139,-3.9122,-3.9049,-3.9041,-3.8977,-3.8957,-3.8936,-3.8912,-3.8861,0,0]},{"header":{"parameterUnit":"m.s-1","parameterCategory":1,"la1":30.2992,"la2":30.254,"lo1":-89.0895,"lo2":-89.0443,"dy":0.0025,"dx":0.0025,"nx":19,"ny":19,"refTime":"2026-05-20T09:00:00:Z","depth":0,"parameterNumber":3,"parameterNumberName":"V-component_of_WINDS"},"data":[0,0,0,3.8278,3.828,3.8373,3.8373,3.8489,3.849,0,0,0,0,0,0,0,0,0,0,0,3.825,3.8251,3.8278,3.8281,3.8373,3.8373,3.8488,3.849,0,0,0,0,0,0,0,0,0,0,0,3.825,3.8251,3.8252,3.8281,3.8373,3.8373,3.8488,3.8419,0,0,0,0,0,0,0,0,0,0,3.833,3.8303,3.825,3.8252,3.8281,3.8373,3.8373,3.8416,3.8424,3.8446,0,3.8466,0,3.848,3.8497,3.8498,0,0,0,3.8281,3.8296,3.8323,3.8252,3.8282,3.8372,3.8331,3.842,3.8429,3.8456,3.8468,3.8472,3.8482,3.8498,3.8499,3.8631,3.8632,0,0,3.8276,3.8265,3.8317,3.8328,3.8315,3.8328,3.8334,3.8425,3.8437,3.8468,3.8475,3.8484,3.8499,3.85,3.8631,3.8632,0,0,0,3.8261,3.8262,3.8286,3.8323,3.834,3.8331,3.8338,3.8433,3.8442,3.8476,3.8485,3.8499,3.8501,3.863,3.8631,3.8654,0,0,0,3.8258,3.8253,3.8284,3.8278,3.8339,3.8388,3.8343,3.8436,3.8446,3.8485,3.8499,3.8502,3.863,3.8631,3.8652,3.8666,0,0,0,3.8244,3.8252,3.8265,3.8278,3.8317,3.8387,3.8401,3.8438,3.8452,3.8498,3.8502,3.8629,3.8631,3.865,3.8663,3.87,0,0,0,3.8226,3.828,3.8265,3.8329,3.8316,3.84,3.84,3.8462,3.8504,3.85,3.863,3.8631,3.8649,3.8661,3.8698,3.8731,3.8744,0,0,3.8289,3.8287,3.8326,3.8315,3.84,3.8387,3.8474,3.8521,3.8533,3.8598,3.8601,3.8652,3.8663,3.87,3.8814,3.8823,0,0,0,3.8343,3.8371,3.8395,3.8437,3.8475,3.8511,3.8546,3.8564,3.862,3.8565,3.8675,3.8682,3.8704,3.872,3.8729,3.875,3.8638,3.8638,3.8637,3.8416,3.8432,3.8499,3.8527,3.8567,3.8605,3.8639,3.8669,3.867,3.8697,3.8716,3.8784,3.8803,3.8809,3.8831,3.8734,3.8734,3.8734,3.8734,3.8511,3.8555,3.856,3.8626,3.8643,3.8698,3.8738,3.8738,3.8793,3.8769,3.879,3.8764,3.8819,3.8839,3.8736,3.8735,3.8735,3.8735,3.8735,3.8563,3.8587,3.8609,3.8674,3.8721,3.8747,3.8801,3.8813,3.8824,3.8845,3.8869,3.8869,3.8872,3.8855,3.8856,3.8856,3.8856,3.8856,3.8856,3.8607,3.8633,3.8677,3.8727,3.8757,3.8798,3.8839,3.8869,3.8905,3.891,3.891,3.8911,3.8821,3.88,3.886,3.8859,3.8859,3.8859,3.8858,3.8701,3.8683,3.8751,3.8782,3.8843,3.8891,3.8907,3.8968,3.8994,3.9021,3.9019,3.895,3.8948,3.8942,3.8924,3.9013,3.9013,3.9013,3.9013,3.8746,3.8747,3.8823,3.8872,3.8921,3.8944,3.9023,3.9057,3.9088,3.9106,3.9094,3.9071,3.9064,3.9068,3.9058,3.9042,3.9159,3.9159,3.916,3.8805,3.8813,3.8878,3.891,3.896,3.9002,3.9078,3.9135,3.9166,3.9166,3.9121,3.9115,3.9078,3.9064,3.9063,3.9049,3.9019,0,0]}]]